Flag for Italy Weather past 2 weeks in Bologna, Italy

Now
79 °F

Passing clouds.


Feels Like: 81 °F
Forecast: 71 / 96 °F
Wind: 3 mph from Southwest

Location: Bologna / Borgo Panigale

Current Time: Aug 5, 2015 at 9:07:30 AM

Latest Report: Aug 5, 2015 at 8:20 AM


Visibility: N/A

Pressure: 29.98 "Hg

Humidity: 65%

Dew point: 66 °F

Location of BolognaLocation

Historic Weather in Bologna — Graph

°F

Bologna temperature yesterday

Maximum temperature yesterday: 95 °F (at 4:50 PM)
Minimum temperature yesterday: 70 °F (at 4:50 AM)
Average temperature yesterday: 82 °F

Past Weeks' High & Low Weather Summary

 TemperatureHumidityPressure
High100 °F (Jul 22, 4:20 PM)94% (Jul 31, 9:20 AM)30.04 "Hg (Jul 31, 9:20 AM)
Low64 °F (Aug 1, 3:50 AM)21% (Jul 28, 7:50 PM)29.59 "Hg (Jul 27, 4:50 PM)
Average80 °F59%29.84 "Hg
* Reported Jul 21 7:20 AM — Aug 5 7:50 AM, Bologna, Weather by CustomWeather, © 2015

Note: Actual official high and low records may vary slightly from our data, if they occured in-between our weather recording intervals... More about our weather records

Advertising

Bologna weather history for previous 24 hours

 ConditionsComfort  
Time TempWeatherWind HumidityBarometerVisibility
7:50 AM
Wed, Aug 5
77 °FSunny.7 mph69%29.98 "Hg10 mi
7:20 AM75 °FPassing clouds.7 mph74%29.98 "HgN/A
6:50 AM75 °FPassing clouds.6 mph69%29.98 "HgN/A
6:20 AM73 °FClear.3 mph74%29.98 "Hg10 mi
5:50 AM73 °FClear.2 mph74%29.98 "Hg10 mi
5:20 AM75 °FClear.7 mph69%29.95 "Hg10 mi
4:50 AM75 °FClear.8 mph69%29.95 "Hg10 mi
4:20 AM75 °FClear.7 mph74%29.95 "Hg10 mi
3:50 AM75 °FPassing clouds.6 mph74%29.95 "HgN/A
3:20 AM77 °FClear.2 mph69%29.95 "Hg10 mi
2:50 AM77 °FClear.6 mph69%29.95 "Hg10 mi
2:20 AM77 °FClear.2 mph69%29.95 "Hg10 mi
1:50 AM77 °FClear.5 mph69%29.95 "Hg10 mi
1:20 AM75 °FClear.3 mph78%29.95 "Hg10 mi
12:50 AM79 °FClear.5 mph70%29.95 "Hg10 mi
12:20 AM79 °FClear.5 mph70%29.92 "Hg10 mi
11:50 PM
Tue, Aug 4
79 °FPassing clouds.3 mph65%29.92 "HgN/A
11:20 PM81 °FClear.5 mph62%29.92 "Hg10 mi
10:50 PM81 °FClear.6 mph66%29.92 "Hg10 mi
10:20 PM82 °FClear.6 mph62%29.89 "Hg10 mi
9:50 PM82 °FClear.8 mph62%29.89 "Hg10 mi
9:20 PM84 °FSunny.10 mph58%29.89 "Hg10 mi
8:50 PM86 °FSunny.7 mph55%29.86 "Hg10 mi
8:20 PM86 °FSunny.9 mph55%29.86 "Hg10 mi
7:50 PM88 °FSunny.8 mph52%29.86 "Hg10 mi
7:20 PM90 °FPassing clouds.9 mph46%29.86 "HgN/A
6:50 PM91 °FSunny.8 mph41%29.86 "Hg10 mi
6:20 PM93 °FPassing clouds.7 mph39%29.86 "HgN/A
5:50 PM93 °FPassing clouds.7 mph39%29.86 "HgN/A
5:20 PM93 °FPassing clouds.7 mph36%29.86 "HgN/A
4:50 PM95 °FSunny.5 mph36%29.86 "Hg10 mi
4:20 PM93 °FPassing clouds.6 mph36%29.89 "HgN/A
3:50 PM93 °FPassing clouds.6 mph34%29.89 "HgN/A
3:20 PM93 °FSunny.3 mph36%29.89 "Hg10 mi
2:50 PM91 °FPassing clouds.6 mph36%29.92 "HgN/A
2:20 PM91 °FPassing clouds.6 mph38%29.92 "HgN/A
1:50 PM90 °FSunny.5 mph41%29.92 "Hg10 mi
1:20 PM90 °FPassing clouds.6 mph43%29.92 "HgN/A
12:50 PM90 °FSunny.5 mph43%29.92 "Hg10 mi
12:20 PM88 °FPassing clouds.6 mph46%29.95 "HgN/A
11:50 AM88 °FSunny.3 mph46%29.95 "Hg10 mi
11:20 AM86 °FSunny.3 mph46%29.95 "Hg10 mi
10:50 AM86 °FSunny.2 mph49%29.95 "Hg10 mi
10:20 AM84 °FPassing clouds.3 mph51%29.95 "HgN/A
9:50 AM81 °FPassing clouds.3 mph58%29.98 "HgN/A
9:20 AM81 °FSunny.2 mph58%29.98 "Hg10 mi
Weather by CustomWeather, © 2015

See weather overviewHow to use our weather pages